Location: Unspecified
(0.0000°N, 0.0000°E)
Time: 00:13:27
(UTC+00:00)

Explorer 7 - Pass Details

Date: 28 July 2019
Orbit: 485 x 680 km, 50.3° (Epoch: 16 August)

Event Time Altitude Azimuth Distance (km) Brightness Sun altitude
Exits shadow 05:15:43 15° 228° (SW) 1,597 8.6 -12.0°
Drops below altitude 10° 05:18:11 10° 195° (SSW) 1,944 9.3 -11.4°
Sets 05:21:25 0° 172° (S) 2,897 10.4 -10.7°
